Weather reports worldwide

Advertisment
Wilkes-Barre/Scrant PA, United States of America (72513): temperature & dewpoint: 18.11.2017 13:00:00 - 24.11.2017 13:00:00 (EST)Wilkes-Barre/Scrant PA, United States of America (72513): wind speed & gusts: 18.11.2017 13:00:00 - 24.11.2017 13:00:00 (EST)Wilkes-Barre/Scrant PA, United States of America (72513): wind direction: 18.11.2017 13:00:00 - 24.11.2017 13:00:00 (EST)Wilkes-Barre/Scrant PA, United States of America (72513): reduced air pressure: 18.11.2017 13:00:00 - 24.11.2017 13:00:00 (EST)Wilkes-Barre/Scrant PA, United States of America (72513): visibility: 18.11.2017 13:00:00 - 24.11.2017 13:00:00 (EST)Wilkes-Barre/Scrant PA, United States of America (72513): precipitation: 18.11.2017 13:00:00 - 24.11.2017 13:00:00 (EST)
Date & Time tt [°C] td [°C] ff [km/h] ff [kn] fx [km/h] fx [kn] dd ppp [hPa] vv [km] rr [mm]
24.11.2017 13:00:00 8,3 -6,1 15 8 - - WSW 1014,8 16 -
24.11.2017 12:00:00 7,2 -6,1 11 6 - - - 1015,6 16 -
24.11.2017 11:00:00 6,1 -5,0 18 10 - - WSW 1016,5 16 -
24.11.2017 10:00:00 3,9 -5,0 9 5 - - SSW 1017,0 16 -
24.11.2017 09:00:00 1,1 -4,4 0 0 - - N 1017,4 16 -
24.11.2017 08:00:00 0,0 -4,4 0 0 - - N 1017,3 16 -
24.11.2017 07:00:00 -1,1 -6,1 0 0 - - N 1017,3 16 -
24.11.2017 06:00:00 -1,7 -5,0 0 0 - - N 1017,1 16 -
24.11.2017 05:00:00 -1,1 -5,0 0 0 - - N 1016,4 16 -
24.11.2017 04:00:00 0,0 -5,0 0 0 - - N 1016,5 16 -
24.11.2017 03:00:00 -0,6 -4,4 0 0 - - N 1016,9 16 -
24.11.2017 02:00:00 -0,6 -5,0 5 3 - - WSW 1016,7 16 -
24.11.2017 01:00:00 -1,7 -5,6 5 3 - - SSW 1016,5 16 -
24.11.2017 00:00:00 -1,1 -5,0 0 0 - - N 1016,6 16 -
23.11.2017 23:00:00 -1,1 -5,0 0 0 - - N 1016,9 16 -
23.11.2017 22:00:00 -1,7 -6,1 0 0 - - N 1016,7 16 -
23.11.2017 21:00:00 -0,6 -5,6 0 0 - - N 1016,8 16 -
23.11.2017 20:00:00 0,0 -6,1 0 0 - - N 1016,5 16 -
23.11.2017 19:00:00 -1,1 -6,1 0 0 - - N 1016,9 16 -
23.11.2017 18:00:00 -0,6 -6,1 0 0 - - N 1016,6 16 -
23.11.2017 17:00:00 1,1 -5,6 0 0 - - N 1016,7 16 -
23.11.2017 16:00:00 1,7 -6,7 0 0 - - N 1016,8 16 -
23.11.2017 15:00:00 2,2 -6,7 13 7 - - WNW 1016,6 16 -
23.11.2017 14:00:00 2,2 -6,7 8 4 - - NNW 1017,2 16 -
23.11.2017 13:00:00 3,3 -6,7 9 5 - - NNW 1018,1 16 -
23.11.2017 12:00:00 1,1 -7,2 5 3 - - - 1019,5 16 -
23.11.2017 11:00:00 0,0 -7,2 13 7 - - W 1020,4 16 -
23.11.2017 10:00:00 0,6 -7,2 18 10 - - NNW 1020,8 16 -
23.11.2017 09:00:00 -1,1 -7,8 11 6 - - NW 1020,8 16 -
23.11.2017 08:00:00 -1,7 -7,8 15 8 - - NW 1020,4 16 -
23.11.2017 07:00:00 -2,2 -7,8 8 4 - - - 1020,1 16 -
23.11.2017 06:00:00 -2,8 -7,8 5 3 - - W 1020,0 16 -
23.11.2017 05:00:00 -2,8 -8,3 9 5 - - NW 1020,1 16 -
23.11.2017 04:00:00 -3,3 -8,9 9 5 - - NW 1020,6 16 -
23.11.2017 03:00:00 -2,8 -8,9 9 5 - - NNW 1020,9 16 -
23.11.2017 02:00:00 -2,2 -8,9 11 6 - - NW 1020,8 16 -
23.11.2017 01:00:00 -1,7 -8,3 16 9 - - NNW 1020,4 16 -
23.11.2017 00:00:00 -1,1 -7,8 18 10 - - NW 1020,4 16 -
22.11.2017 23:00:00 -0,6 -7,8 18 10 - - NW 1020,4 16 -
22.11.2017 22:00:00 0,0 -7,2 22 12 - - NNW 1020,6 16 -
22.11.2017 21:00:00 0,0 -7,2 29 16 - - NNW 1020,7 16 -
22.11.2017 20:00:00 0,6 -6,1 18 10 - - N 1020,4 16 -
22.11.2017 19:00:00 1,1 -6,1 35 19 48 26 NNW 1020,0 16 -
22.11.2017 18:00:00 1,7 -5,6 28 15 - - NNW 1019,6 16 -
22.11.2017 17:00:00 2,2 -5,0 21 11 - - NW 1018,5 16 -
22.11.2017 16:00:00 2,8 -3,9 18 10 48 26 NW 1018,1 16 -
22.11.2017 15:00:00 3,3 -2,8 18 10 - - NW 1017,2 16 -
22.11.2017 14:00:00 3,9 -2,2 15 8 - - NW 1016,8 16 -
22.11.2017 13:00:00 4,4 -1,7 24 13 - - NNW 1016,2 16 0,3
22.11.2017 12:00:00 3,9 -0,6 26 14 48 26 NNW 1015,9 16 -
22.11.2017 11:00:00 4,4 0,6 29 16 - - NNW 1016,1 16 -
22.11.2017 10:00:00 5,6 2,8 24 13 - - NNW 1015,2 16 0,0
22.11.2017 09:00:00 3,9 2,8 0 0 - - N 1013,9 10 0,0
22.11.2017 08:00:00 3,3 2,2 0 0 - - N 1013,8 13 0,0
22.11.2017 07:00:00 3,9 2,2 5 3 - - SSE 1013,6 16 -
22.11.2017 06:00:00 3,9 2,2 5 3 - - SSW 1012,9 16 -
22.11.2017 05:00:00 4,4 2,8 8 4 - - E 1011,9 16 -
22.11.2017 04:00:00 5,6 3,3 8 4 - - - 1012,5 10 -
22.11.2017 03:00:00 7,2 3,3 0 0 - - N 1013,2 16 -
22.11.2017 02:00:00 8,3 3,3 0 0 - - N 1013,3 16 -
22.11.2017 01:00:00 7,8 2,8 0 0 - - N 1013,3 16 -
22.11.2017 00:00:00 5,6 1,7 5 3 - - SE 1014,4 16 -
21.11.2017 23:00:00 8,3 1,1 0 0 - - N 1015,0 16 -
21.11.2017 22:00:00 6,7 -0,6 5 3 - - S 1015,5 16 -
21.11.2017 21:00:00 6,7 -1,1 5 3 - - SE 1015,9 16 -
21.11.2017 20:00:00 8,3 -1,7 8 4 - - S 1015,6 16 -
21.11.2017 19:00:00 8,9 -1,7 8 4 - - SW 1015,5 16 -
21.11.2017 18:00:00 9,4 -2,8 8 4 - - - 1015,1 16 -
21.11.2017 17:00:00 10,6 -3,9 15 8 - - S 1014,4 16 -
21.11.2017 16:00:00 12,8 -5,6 21 11 - - S 1013,9 16 -
21.11.2017 15:00:00 13,3 -6,1 15 8 - - SSW 1013,5 16 -
21.11.2017 14:00:00 13,9 -6,1 26 14 48 26 SW 1013,8 16 -
21.11.2017 13:00:00 13,3 -5,0 15 8 48 26 SSW 1014,6 16 -
21.11.2017 12:00:00 12,8 -6,7 28 15 - - SW 1015,4 16 -
21.11.2017 11:00:00 10,0 -3,9 16 9 - - WSW 1016,6 16 -
21.11.2017 10:00:00 6,7 -2,8 5 3 - - - 1017,1 16 -
21.11.2017 09:00:00 3,3 -4,4 0 0 - - N 1017,5 16 -
21.11.2017 08:00:00 2,2 -3,3 8 4 - - W 1017,3 16 -
21.11.2017 07:00:00 1,7 -5,6 5 3 - - SSW 1017,2 16 -
21.11.2017 06:00:00 0,0 -5,0 0 0 - - N 1017,8 16 -
21.11.2017 05:00:00 0,0 -5,0 5 3 - - S 1018,0 16 -
21.11.2017 04:00:00 1,1 -5,0 0 0 - - N 1017,4 16 -
21.11.2017 03:00:00 1,7 -5,0 0 0 - - N 1018,2 16 -
21.11.2017 02:00:00 2,2 -5,0 0 0 - - N 1018,2 16 -
21.11.2017 01:00:00 2,2 -5,0 0 0 - - N 1018,2 16 -
21.11.2017 00:00:00 3,3 -5,0 9 5 - - SW 1018,4 16 -
20.11.2017 23:00:00 2,8 -4,4 5 3 - - SW 1018,6 16 -
20.11.2017 22:00:00 3,3 -4,4 11 6 - - WSW 1018,5 16 -
20.11.2017 21:00:00 3,9 -4,4 11 6 - - SW 1018,3 16 -
20.11.2017 20:00:00 3,3 -4,4 13 7 - - WSW 1018,2 16 -
20.11.2017 19:00:00 4,4 -4,4 15 8 - - WSW 1018,2 16 -
20.11.2017 18:00:00 4,4 -4,4 13 7 - - SW 1018,1 16 -
20.11.2017 17:00:00 5,0 -3,9 9 5 - - SW 1017,7 16 -
20.11.2017 16:00:00 5,6 -3,9 26 14 - - WSW 1017,4 16 -
20.11.2017 15:00:00 5,6 -3,3 22 12 - - WSW 1016,8 16 -
20.11.2017 14:00:00 4,4 -3,9 22 12 - - SW 1017,0 16 -
20.11.2017 13:00:00 3,9 -3,9 24 13 - - WSW 1016,9 16 -
20.11.2017 12:00:00 3,3 -3,9 21 11 - - WSW 1017,2 16 -
20.11.2017 11:00:00 2,2 -3,3 21 11 - - WSW 1017,8 16 -
20.11.2017 10:00:00 1,7 -3,3 21 11 - - WSW 1017,8 16 -
20.11.2017 09:00:00 1,1 -3,9 21 11 - - WSW 1017,2 16 -
20.11.2017 08:00:00 0,6 -3,9 18 10 - - WSW 1016,4 16 -
20.11.2017 07:00:00 0,0 -3,3 15 8 - - SW 1015,4 16 0,0
20.11.2017 06:00:00 0,0 -3,3 11 6 - - WSW 1014,7 8 0,0
20.11.2017 05:00:00 0,6 -3,3 16 9 - - WSW 1013,6 16 -
20.11.2017 04:00:00 0,0 -1,7 11 6 - - WSW 1012,7 16 0,0
20.11.2017 03:00:00 0,0 -1,7 11 6 - - WSW 1012,6 15 0,3
20.11.2017 02:00:00 0,0 -1,7 11 6 - - W 1011,7 2,0 0,3
20.11.2017 01:00:00 0,6 -3,9 16 9 - - W 1010,6 16 0,0
20.11.2017 00:00:00 0,6 -2,2 9 5 - - W 1010,0 16 0,0
19.11.2017 23:00:00 0,6 -1,7 15 8 - - NW 1009,4 15 0,0
19.11.2017 22:00:00 2,2 -2,8 22 12 - - W 1008,7 4,8 0,0
19.11.2017 21:00:00 2,2 -1,7 18 10 - - W 1008,3 16 0,0
19.11.2017 20:00:00 3,3 -1,7 18 10 - - WSW 1006,9 16 -
19.11.2017 19:00:00 3,9 -1,1 16 9 - - W 1006,1 16 0,0
19.11.2017 18:00:00 3,9 -1,1 24 13 - - WNW 1005,3 13 0,0
19.11.2017 17:00:00 5,6 -2,8 11 6 - - WNW 1003,9 16 -
19.11.2017 16:00:00 6,1 -3,3 22 12 - - NW 1003,3 16 -
19.11.2017 15:00:00 6,1 -3,3 22 12 - - NW 1002,7 16 -
19.11.2017 14:00:00 6,1 -3,3 26 14 48 26 NW 1002,1 16 -
19.11.2017 13:00:00 5,6 -2,8 26 14 52 28 WNW 1001,9 16 0,0
19.11.2017 12:00:00 5,6 -1,1 26 14 52 28 NW 1001,2 16 -
19.11.2017 11:00:00 5,6 -0,6 24 13 55 30 WNW 1000,4 16 -
19.11.2017 10:00:00 6,1 -1,1 35 19 63 34 NW 998,8 16 0,0
19.11.2017 09:00:00 6,1 -0,6 29 16 54 29 WNW 997,9 16 0,0
19.11.2017 08:00:00 6,1 2,2 34 18 59 32 W 996,0 16 0,0
19.11.2017 07:00:00 8,3 2,2 42 23 61 33 W 993,4 16 2,5
19.11.2017 06:00:00 10,0 7,2 39 21 67 36 WSW 990,1 16 0,5
19.11.2017 05:00:00 12,8 10,6 35 19 55 30 SW 987,6 16 0,5
19.11.2017 04:00:00 13,3 10,6 21 11 - - SSW 986,7 15 0,3
19.11.2017 03:00:00 12,2 9,4 13 7 - - SSW 987,4 16 0,3
19.11.2017 02:00:00 11,1 8,3 26 14 48 26 SSW 988,4 15 0,0
19.11.2017 01:00:00 10,6 7,8 18 10 - - SSW 990,8 15 0,8
19.11.2017 00:00:00 9,4 7,8 13 7 - - S 991,9 6 4,1
18.11.2017 23:00:00 8,9 6,7 21 11 - - SSW 993,9 8 1,5
18.11.2017 22:00:00 8,9 5,6 21 11 - - SSW 994,8 15 0,3
18.11.2017 21:00:00 8,9 5,6 11 6 - - SSW 996,5 16 0,3
18.11.2017 20:00:00 7,8 5,0 11 6 - - SSW 998,2 15 -
18.11.2017 19:00:00 6,7 5,0 5 3 - - - 999,5 16 0,0
18.11.2017 18:00:00 6,1 4,4 9 5 - - S 1000,1 15 0,3
18.11.2017 17:00:00 5,6 3,9 8 4 - - W 1001,7 15 0,3
18.11.2017 16:00:00 5,6 3,9 9 5 - - SSW 1002,6 11 0,3
18.11.2017 15:00:00 5,6 3,3 8 4 - - S 1002,8 13 0,0
18.11.2017 14:00:00 5,0 2,8 8 4 - - SSW 1003,5 11 0,0
18.11.2017 13:00:00 5,0 2,2 13 7 - - SW 1004,8 15 0,0

tt = temperature
td = dewpoint
ff = wind speed
fx = gusts
dd = wind direction
ppp = reduced air pressure
vv = visibility
rr = precipitation

Next stations